Date String (YYYY-MM-DD hh:mm:ss) UTC,Instrument flags,absolute air pressure of the measurement (hPa),sample flow rate (lpm),inlet stack bypass flow (lpm),air temperature of the measurement (°C),ambient temperature measured by the external sensor (°C),aerosol sample conditioner tube jacket temperature (°C),OPC LED temperature (°C),internal box temperature (°C),relative humidity of the measurement (%),span deviation,mass concentration of particles derived from Lorenz-Mie calculation of OPC scattering (μg/m³),mass concentration of particles derived from Lorenz-Mie calculation of OPC scattering (μg/m³),mass concentration of particles derived from Lorenz-Mie calculation of OPC scattering (μg/m³)
DateTimeUTC,F1_M11,P_M11,Q1_M11,Q2_M11,T1_M11,T2_M11,T3_M11,T4_M11,T5_M11,U1_M11,ZSPAN_M11,X0_M11,X2_M11,X1_M11
2024-04-25 20:00:00,SystemResetWarning,0820.2,5.02,000.00,025.2,024.4,000.0,033.4,027.1,030.1,0002.0,0029.60,0014.07,0011.94
2024-04-25 20:01:00,SystemResetWarning,0820.2,5.01,000.00,025.3,024.6,000.0,033.5,027.2,029.8,0002.1,0030.05,0014.36,0012.18
2024-04-25 20:02:00,SystemResetWarning,0819.8,4.99,000.00,025.3,024.7,000.0,033.5,027.3,029.9,0002.4,0031.03,0014.63,0012.37
2024-04-25 20:03:00,SystemResetWarning,0819.6,5.00,000.00,025.4,024.8,000.0,033.5,027.4,028.4,0002.3,0032.66,0014.83,0012.55
2024-04-25 20:04:00,SystemResetWarning,0819.6,4.99,000.00,025.5,024.6,000.0,033.6,027.2,027.8,0002.2,0033.63,0014.93,0012.63
2024-04-25 20:05:00,SystemResetWarning,0819.6,5.00,000.00,025.2,022.9,000.0,033.6,026.2,028.5,0002.4,0035.17,0014.88,0012.66
2024-04-25 20:06:00,SystemResetWarning,0819.5,5.00,000.00,024.8,021.6,000.0,033.6,025.4,029.4,0002.6,0035.82,0014.82,0012.64
2024-04-25 20:07:00,SystemResetWarning,0819.6,5.01,000.00,024.6,021.8,000.0,033.5,025.4,030.1,0002.3,0035.57,0014.71,0012.54
2024-04-25 20:08:00,SystemResetWarning,0819.6,5.01,000.00,024.5,022.2,000.0,033.4,025.6,030.7,0002.2,0035.54,0014.62,0012.46
2024-04-25 20:09:00,SystemResetWarning,0819.7,4.99,000.00,024.6,022.6,000.0,033.3,026.0,030.8,0001.9,0035.92,0014.54,0012.33
2024-04-25 20:10:00,SystemResetWarning,0820.0,5.00,000.00,024.6,023.0,000.0,033.2,026.3,030.8,0001.7,0035.95,0014.42,0012.15
2024-04-25 20:11:00,SystemResetWarning,0820.2,5.01,000.00,024.7,023.3,000.0,033.2,026.5,030.7,0001.7,0036.08,0014.27,0011.97
2024-04-25 20:12:00,SystemResetWarning,0820.2,5.01,000.00,024.8,023.6,000.0,033.2,026.6,031.1,0001.6,0036.79,0014.14,0011.82
2024-04-25 20:13:00,SystemResetWarning,0819.9,5.00,000.00,024.8,023.8,000.0,033.2,026.7,030.7,0001.4,0036.99,0014.03,0011.71
2024-04-25 20:14:00,SystemResetWarning,0819.6,5.00,000.00,024.9,024.1,000.0,033.2,026.8,030.5,0001.5,0035.64,0013.98,0011.65
2024-04-25 20:15:00,SystemResetWarning,0819.6,5.00,000.00,025.0,024.3,000.0,033.2,026.9,030.2,0001.5,0035.84,0013.96,0011.66
2024-04-25 20:16:00,SystemResetWarning,0819.7,5.00,000.00,025.1,024.5,000.0,033.3,027.0,029.9,0001.5,0036.65,0014.03,0011.68
2024-04-25 20:17:00,SystemResetWarning,0819.6,5.01,000.00,025.1,024.6,000.0,033.3,027.1,029.9,0001.4,0035.51,0014.01,0011.66
2024-04-25 20:18:00,SystemResetWarning,0819.8,5.00,000.00,025.2,024.7,000.0,033.3,027.2,029.4,0001.5,0035.23,0014.08,0011.72
2024-04-25 20:19:00,SystemResetWarning,0819.6,5.01,000.00,025.3,024.8,000.0,033.4,027.3,029.2,0001.4,0035.11,0014.15,0011.79
2024-04-25 20:20:00,SystemResetWarning,0819.6,4.99,000.00,025.4,024.9,000.0,033.4,027.4,029.0,0001.7,0034.50,0014.20,0011.89
2024-04-25 20:21:00,SystemResetWarning,0819.5,4.99,000.00,025.3,023.9,000.0,033.5,026.7,029.0,0001.9,0034.25,0014.26,0011.99
2024-04-25 20:22:00,SystemResetWarning,0819.4,5.01,000.00,024.9,022.0,000.0,033.5,025.6,029.9,0002.0,0033.50,0014.32,0012.08
2024-04-25 20:23:00,SystemResetWarning,0819.4,5.02,000.00,024.6,021.5,000.0,033.5,025.2,030.5,0002.0,0034.05,0014.37,0012.09
2024-04-25 20:24:00,SystemResetWarning,0819.4,5.00,000.00,024.4,021.8,000.0,033.3,025.3,030.3,0002.0,0033.42,0014.38,0012.15
2024-04-25 20:25:00,SystemResetWarning,0819.4,5.00,000.00,024.4,022.3,000.0,033.2,025.6,030.6,0001.9,0033.36,0014.42,0012.21
2024-04-25 20:26:00,SystemResetWarning,0819.4,5.01,000.00,024.5,022.6,000.0,033.1,026.0,030.4,0001.9,0033.42,0014.44,0012.28
2024-04-25 20:27:00,SystemResetWarning,0819.4,5.00,000.00,024.5,023.0,000.0,033.1,026.2,030.3,0001.9,0031.07,0014.58,0012.46
2024-04-25 20:28:00,SystemResetWarning,0819.3,4.99,000.00,024.6,023.3,000.0,033.1,026.4,030.4,0001.7,0031.04,0014.76,0012.63
2024-04-25 20:29:00,SystemResetWarning,0819.3,5.00,000.00,024.7,023.6,000.0,033.1,026.5,030.4,0001.7,0031.38,0014.93,0012.74
2024-04-25 20:30:00,SystemResetWarning,0819.3,5.01,000.00,024.7,023.8,000.0,033.1,026.6,030.2,0001.7,0031.81,0015.03,0012.79
2024-04-25 20:31:00,SystemResetWarning,0819.2,5.00,000.00,024.8,024.0,000.0,033.1,026.7,029.9,0001.6,0031.77,0015.09,0012.78
2024-04-25 20:32:00,SystemResetWarning,0819.1,5.01,000.00,024.9,024.2,000.0,033.1,026.8,029.5,0001.5,0032.14,0015.04,0012.74
2024-04-25 20:33:00,SystemResetWarning,0819.1,5.01,000.00,025.0,024.3,000.0,033.1,026.9,029.9,0001.3,0033.44,0014.97,0012.67
2024-04-25 20:34:00,SystemResetWarning,0819.1,4.99,000.00,025.1,024.5,000.0,033.2,027.0,029.8,0001.3,0042.66,0015.37,0012.62
2024-04-25 20:35:00,SystemResetWarning,0819.0,5.00,000.00,025.1,024.6,000.0,033.2,027.1,030.0,0001.1,0062.42,0016.60,0012.64
2024-04-25 20:36:00,SystemResetWarning,0819.0,5.01,000.00,025.2,024.7,000.0,033.2,027.2,029.0,0001.1,0062.54,0016.48,0012.51
2024-04-25 20:37:00,SystemResetWarning,0819.0,5.00,000.00,025.3,024.8,000.0,033.3,027.3,028.2,0001.4,0062.88,0016.36,0012.39
2024-04-25 20:38:00,SystemResetWarning,0819.0,5.00,000.00,025.3,024.9,000.0,033.3,027.3,027.9,0001.3,0062.37,0016.17,0012.17
2024-04-25 20:39:00,SystemResetWarning,0818.9,4.98,000.00,025.3,024.1,000.0,033.4,026.8,027.8,0001.4,0061.23,0015.91,0011.93
2024-04-25 20:40:00,SystemResetWarning,0819.4,5.01,000.00,024.9,022.2,000.0,033.5,025.7,028.4,0001.4,0060.76,0015.71,0011.76
2024-04-25 20:41:00,SystemResetWarning,0818.9,5.01,000.00,024.6,021.4,000.0,033.4,025.2,028.8,0001.2,0060.97,0015.47,0011.60
2024-04-25 20:42:00,SystemResetWarning,0819.0,5.00,000.00,024.4,021.8,000.0,033.3,025.3,029.0,0001.1,0060.95,0015.26,0011.43
2024-04-25 20:43:00,SystemResetWarning,0819.1,5.00,000.00,024.4,022.2,000.0,033.2,025.6,028.8,0001.0,0060.66,0015.15,0011.30
2024-04-25 20:44:00,SystemResetWarning,0818.8,5.00,000.00,024.4,022.6,000.0,033.1,025.9,028.3,0000.7,0060.52,0015.10,0011.20
2024-04-25 20:45:00,SystemResetWarning,0818.8,5.00,000.00,024.5,022.9,000.0,033.0,026.2,028.9,0000.8,0052.64,0014.68,0011.10
2024-04-25 20:46:00,SystemResetWarning,0818.8,5.00,000.00,024.5,023.2,000.0,033.0,026.3,028.8,0000.9,0034.23,0013.44,0010.91
2024-04-25 20:47:00,SystemResetWarning,0818.9,5.00,000.00,024.6,023.5,000.0,033.0,026.5,028.4,0001.2,0034.10,0013.34,0010.81
2024-04-25 20:48:00,SystemResetWarning,0818.9,4.99,000.00,024.7,023.7,000.0,033.0,026.6,028.5,0001.1,0034.21,0013.23,0010.71
2024-04-25 20:49:00,SystemResetWarning,0818.8,5.00,000.00,024.8,023.9,000.0,033.0,026.7,028.2,0000.9,0035.50,0013.11,0010.58
2024-04-25 20:50:00,SystemResetWarning,0818.9,5.01,000.00,024.8,024.1,000.0,033.1,026.8,027.6,0001.0,0035.85,0012.92,0010.39
2024-04-25 20:51:00,SystemResetWarning,0818.9,4.99,000.00,024.9,024.3,000.0,033.1,026.9,026.3,0001.1,0036.58,0012.66,0010.15
2024-04-25 20:52:00,SystemResetWarning,0818.8,5.00,000.00,025.0,024.4,000.0,033.1,026.9,025.8,0001.6,0035.80,0012.35,0009.89
2024-04-25 20:53:00,SystemResetWarning,0818.8,5.01,000.00,025.1,024.5,000.0,033.2,027.0,025.2,0001.6,0035.20,0011.94,0009.56
2024-04-25 20:54:00,SystemResetWarning,0818.8,5.01,000.00,025.1,024.6,000.0,033.2,027.1,025.4,0001.6,0034.12,0011.54,0009.23
2024-04-25 20:55:00,SystemResetWarning,0818.8,4.99,000.00,025.2,024.7,000.0,033.3,027.2,024.7,0002.0,0032.07,0011.08,0008.88
2024-04-25 20:56:00,SystemResetWarning,0818.8,4.99,000.00,025.3,024.8,000.0,033.3,027.3,025.3,0002.3,0030.19,0010.68,0008.56
2024-04-25 20:57:00,SystemResetWarning,0818.7,4.99,000.00,025.3,024.3,000.0,033.4,026.9,025.6,0002.3,0025.71,0010.07,0008.27
2024-04-25 20:58:00,SystemResetWarning,0818.6,5.01,000.00,024.9,022.4,000.0,033.4,025.7,025.9,0002.1,0024.82,0009.77,0008.00
2024-04-25 20:59:00,SystemResetWarning,0818.6,5.00,000.00,024.5,021.4,000.0,033.4,025.1,027.0,0002.1,0024.98,0009.54,0007.74
